Portada
METAR-TAF:

METAR-TAF

Aeroports :

Moose Lake Carlton County Airport

Moose Lake, Minnesota, Estats Units d'Amèrica

latitud: 46-25N, longitud: 092-48W, altitud: 328 m

Observació

L'informe es va fer fa 28 minuts, a les 12:00 UTC
Vent calma
Temperatura -1°C
Humitat 93%
Pressió 1010 hPa
Visibilitat: 16.1 km
Cel clar

METAR: KMZH 161200Z AUTO 00000KT 10SM CLR M01/M02 A2983 RMK AO2

Hora: 07:28 (12:28 UTC)


TAF: manca

Observacions i pronòstics meteorològics de més de 4000 aeroports (METAR i TAF).

Les estacions disponibles són els punts grocs i vermells al mapa.

Posi el ratolí al punt desitjat per veure el nom de l'estació.

Feu clic per veure les observacions i els pronòstics meteorològics.

Per canviar el mapa: feu clic els botons verds amb una creu de color negre per apropar; al botó verd amb un guió per allunyar la imatge; o en les fletxes verdes per a mapes adjacents.


METAR-TAF: